Regional Weather Roundup
Issued by NWS

Home | Current Version | Previous Version | Graphics & Text | Print | Product List | Glossary On
Versions: 1 2 3 4 5 6 7 8 9 10 11 12 13 14 15 16 17 18 19 20 21 22 23 24 25 26 27 28 29 30 31 32 33 34 35 36 37 38 39 40 41 42 43 44 45 46 47 48 49 50
000
ASUS43 KOAX 250010
RWRNE

WEATHER ROUNDUP FOR NEBRASKA
NATIONAL WEATHER SERVICE OMAHA NE
700 PM CDT TUE APR 24 2018

NOTES: SATELLITE DATA IS BEING USED TO AUGMENT CLOUD COVER ABOVE
       12000 FEET.
       "FAIR" INDICATES FEW OR NO CLOUDS BELOW 12,000 FEET WITH NO
       SIGNIFICANT WEATHER AND/OR OBSTRUCTIONS TO VISIBILITY.


NEZ001>004-019>022-054>056-250100-
NEBRASKA PANHANDLE

CITY           SKY/WX    TMP DP  RH WIND       PRES   REMARKS
SCOTTSBLUFF    CLOUDY    43  33  68 N12       30.41S
6HR MIN TEMP:  40; 6HR MAX TEMP:  46;

ALLIANCE       CLOUDY    39  29  67 N17       30.39F WCI  30
6HR MIN TEMP:  35; 6HR MAX TEMP:  40;

CHADRON        CLOUDY    47  26  44 N9        30.42S
6HR MIN TEMP:  39; 6HR MAX TEMP:  48; 6HR PCP: TRACE;

GORDON         CLOUDY    40  31  69 N12       30.40F WCI  33
6HR MIN TEMP:  36; 6HR MAX TEMP:  40;

KIMBALL        CLOUDY    39  30  71 N9G20     30.39S WCI  33
SIDNEY         CLOUDY    40  30  67 N16       30.38F WCI  31
6HR MIN TEMP:  38; 6HR MAX TEMP:  41;

$$

NEZ057>060-069>072-079>082-250100-
SOUTHWEST NEBRASKA

CITY           SKY/WX    TMP DP  RH WIND       PRES   REMARKS
NORTH PLATTE   CLOUDY    40  34  79 N15G29    30.36R WCI  32
6HR MIN TEMP:  40; 6HR MAX TEMP:  44; 6HR PCP: TRACE;

IMPERIAL       CLOUDY    41  34  76 N22G32    30.36S
6HR MIN TEMP:  40; 6HR MAX TEMP:  44;

LEXINGTON      CLOUDY    42  37  82 N24G31    30.31S
MCCOOK         CLOUDY    43  36  76 N24G33    30.33R
6HR MIN TEMP:  42; 6HR MAX TEMP:  46; 6HR PCP:  0.02;

OGALLALA       CLOUDY    43  34  71 N22G28    30.38S
$$

NEZ005>010-023>029-035>040-094-250100-
NORTH CENTRAL NEBRASKA

CITY           SKY/WX    TMP DP  RH WIND       PRES   REMARKS
VALENTINE      CLOUDY    38  35  89 N15       30.38F WCI  29
6HR MIN TEMP:  38; 6HR MAX TEMP:  40; 6HR PCP:  0.01;

AINSWORTH      LGT RAIN  37  37  99 N20G28    30.35F WCI  27
BROKEN BOW     CLOUDY    40  37  89 N22G32    30.30R WCI  30
6HR MIN TEMP:  40; 6HR MAX TEMP:  43; 6HR PCP:  0.01;

O`NEILL        CLOUDY    43  42  96 N20G25    30.30S FOG
ORD            CLOUDY    43  42  97 N18G26    30.27R FOG
6HR MIN TEMP:  43; 6HR MAX TEMP:  45; 6HR PCP:  0.08;

THEDFORD       RAIN      37  36  94 N16G26    30.38R WCI  28
$$

NEZ041-046>049-061>064-073>077-083>087-250100-
SOUTH CENTRAL NEBRASKA

CITY           SKY/WX    TMP DP  RH WIND       PRES   REMARKS
GRAND ISLAND   CLOUDY    46  44  93 NW21G29   30.23S
6HR MIN TEMP:  45; 6HR MAX TEMP:  48; 6HR PCP:  0.22;

AURORA         CLOUDY    48  47  95 NW10      30.21F
HASTINGS       CLOUDY    46  44  93 NW20G26   30.23S
6HR MIN TEMP:  44; 6HR MAX TEMP:  46; 6HR PCP:  0.25;

HEBRON         LGT RAIN  49  47  91 NW9       30.22S
HOLDREGE       CLOUDY    42  40  91 N22G30    30.28R
KEARNEY        CLOUDY    44  41  89 N20       30.26S
YORK             N/A     48  48 100 N7        30.22S
$$

NEZ011>018-030>034-042>045-250100-
NORTHEAST NEBRASKA

CITY           SKY/WX    TMP DP  RH WIND       PRES   REMARKS
NORFOLK        CLOUDY    47  45  93 N18       30.21R
6HR MIN TEMP:  47; 6HR MAX TEMP:  51; 6HR PCP:  0.16;

ALBION         CLOUDY    46  44  94 N14G23    30.25R FOG
BLAIR          RAIN      53  51  92 W12G18    30.19R
COLUMBUS       CLOUDY    48  46  93 NW6       30.22S
FREMONT        DRIZZLE   53  51  95 W8        30.21R
TEKAMAH        LGT RAIN  54  51  90 NW12      30.19R
6HR MIN TEMP:  54; 6HR MAX TEMP:  72; 6HR PCP:  0.01;

WAYNE          LGT RAIN  47  46  97 N14       30.23R
$$

NEZ050>053-065>068-078-088>093-250100-
SOUTHEAST NEBRASKA

CITY           SKY/WX    TMP DP  RH WIND       PRES   REMARKS
LINCOLN        LGT RAIN  51  49  92 N8        30.21S
6HR MIN TEMP:  51; 6HR MAX TEMP:  72; 6HR PCP:  0.01;

OMAHA EPPLEY   LGT RAIN  57  49  74 W15       30.17R
6HR MIN TEMP:  57; 6HR MAX TEMP:  77; 6HR PCP: TRACE;

BEATRICE       DRIZZLE   52  51  95 NW8       30.20S
FALLS CITY     CLOUDY    62  45  53 NW23G33   30.14R
6HR MIN TEMP:  62; 6HR MAX TEMP:  76;

NEBRASKA CITY  CLOUDY    57  48  70 NW22      30.17R
PLATTSMOUTH    DRIZZLE   55  49  80 NW14      30.17R
$$

NEZ044-045-051>053-067-250100-
OMAHA AREA

CITY           SKY/WX    TMP DP  RH WIND       PRES   REMARKS
OMAHA EPPLEY   LGT RAIN  57  49  74 W15       30.17R
6HR MIN TEMP:  57; 6HR MAX TEMP:  77; 6HR PCP: TRACE;

BLAIR          RAIN      53  51  92 W12G18    30.19R
FREMONT        DRIZZLE   53  51  95 W8        30.21R
MILLARD        LGT RAIN  55  52  89 NW10      30.19R
OFFUTT AFB     LGT RAIN  56  49  77 NW18      30.16R
PLATTSMOUTH    DRIZZLE   55  49  80 NW14      30.17R
WAHOO          DRIZZLE   52  48  87 NW8       30.21S
$$



USA.gov is the U.S. government's official web portal to all federal, state and local government web resources and services.